Regional Weather Roundup
Issued by NWS Cleveland, OH

Home | Current Version | Previous Version | Text Only | Print | Product List | Glossary Off
Versions: 1 2 3 4 5 6 7 8 9 10 11 12 13 14 15 16 17 18 19 20 21 22 23 24 25 26 27 28 29 30 31 32 33 34 35 36 37 38 39 40 41 42 43 44 45 46 47 48 49 50

222
ASUS41 KCLE 251110
RWRCLE
OHIO REGIONAL WEATHER ROUNDUP
NATIONAL WEATHER SERVICE WILMINGTON, OH
700 AM EDT SAT MAR 25 2017

NOTE: "FAIR" INDICATES FEW OR NO CLOUDS BELOW 12,000 FEET WITH NO
SIGNIFICANT WEATHER AND/OR OBSTRUCTIONS TO VISIBILITY.

OHZ001>008-015>018-024>027-034-035-043-044-251200-
   NORTHWEST OHIO

CITY           SKY/WX    TMP DP  RH WIND       PRES   REMARKS
DEFIANCE       MOCLDY    54  50  86 E3        30.07R
FINDLAY        MOCLDY    60  51  72 SW9       30.07R
TOLEDO EXPRESS CLOUDY    45  40  82 E3        30.09R
TOLEDO EXEC    MOCLDY    44  41  89 NE5       30.10R
LIMA           FAIR      60  53  77 S9        30.08R
$$

OHZ009>014-019>023-028>033-038-089-251200-
   NORTHEAST OHIO

CITY           SKY/WX    TMP DP  RH WIND       PRES   REMARKS
CLE-HOPKINS    MOCLDY    54  46  74 CALM      30.11R
CLE-LAKEFRONT  MOCLDY    44  39  82 S3        30.08S
CUY CO. ARPT   MOCLDY    55  50  82 CALM      30.09
LORAIN-ELYRIA  FAIR      48  42  80 CALM      30.09R
ASHTABULA      CLOUDY    50  48  93 CALM      30.09S
AKRON-CANTON   FAIR      59  50  72 S7        30.12R
WOOSTER        FAIR      59  51  75 SW10      30.12R
MANSFIELD      FAIR      59  51  75 SW12G21   30.11R
YOUNGSTOWN     MOCLDY    61  51  70 SW10      30.10S
$$

OHZ042-051>053-060>062-070>072-077>081-251200-
  SOUTHWEST OHIO

CITY           SKY/WX    TMP DP  RH WIND       PRES   REMARKS
CINC-COVINGTON MOCLDY    57  49  74 S10       30.11R
CINC-LUNKEN    FAIR      58  50  75 SW5       30.12R
HAMILTON       FAIR      59  51  75 SE3       30.12R
DAYTON         MOCLDY    60  49  66 S13       30.10R
WRIGHT-PAT AFB FAIR      60  51  71 S7        30.10R
DAYTON GENERAL FAIR      58  50  75 S9        30.10R
WILMINGTON     FAIR      58  49  72 S10       30.12R
$$

OHZ036-037-039>041-045>050-054>059-063>069-073>076-082>088-251200-
  CENTRAL AND SOUTHEAST OHIO

CITY           SKY/WX    TMP DP  RH WIND       PRES   REMARKS
COLUMBUS       CLOUDY    61  50  67 S7        30.12S
OSU AIRPORT    FAIR      59  51  75 S6        30.12R
BOLTON FIELD   FAIR      58  50  75 S9        30.13R
RICKENBACK AFB FAIR      58  50  74 S8        30.11S
NEWARK         FAIR      59  49  69 SW3       30.12S
MARION         FAIR      57  50  77 S8        30.11R
LANCASTER      FAIR      62  49  62 S7        30.13S
ZANESVILLE     FAIR      59  49  69 S7        30.15R
NEW PHILLY     FAIR      61  51  70 S3        30.14S
$$




USA.gov is the U.S. government's official web portal to all federal, state and local government web resources and services.